Terug naar catalogus

STARLINK-37691

ActiefCommunicatieVLEO
NORAD 69205·PAYLOAD·🇺🇸 United States

Gelanceerd May 25, 2026 vanaf Cape Canaveral Space Force Station

Loading…

Volgende Passages (komende 24 uur)

TLE

VersSource: CelesTrak SupGP

Epoch: Sep 14, 2026, 23:24 UTC

1 69205C 26114Z   26257.97548611 -.00054607  00000+0 -16134-2 0  2576
2 69205  53.1569 139.3025 0001288  82.5166 195.5122 15.34417978    18

Volg STARLINK-37691 in realtime met AllMySat

Download on the App Store